Location: Scottsville
(37.8064°N, 78.4920°W)
Time: 02:47:48
(UTC+00:00)

BlueWalker 3 - Visible Passes

Search period start: 21 June 2024 00:00
Search period end: 01 July 2024 00:00
Orbit: 480 x 494 km, 53.2° (Epoch: 20 June)

Date Brightness Start Highest point End Pass type
(mag) Time Alt. Az. Time Alt. Az. Time Alt. Az.
21 Jun 2.6 01:36:57 10° WSW 01:40:38 55° NW 01:44:19 10° NE visible
21 Jun 5.3 03:17:43 10° NW 03:19:28 13° NNW 03:21:12 10° N visible
21 Jun 5.2 06:36:43 10° N 06:38:44 14° NNE 06:40:46 10° NE visible
21 Jun 2.2 08:13:46 10° NW 08:17:30 67° NE 08:21:13 10° SE visible
22 Jun 2.5 01:11:13 10° WSW 01:14:55 60° NW 01:18:38 10° NE visible
22 Jun 5.2 02:51:51 10° NW 02:53:44 13° NNW 02:55:37 10° N visible
22 Jun 5.2 06:11:06 10° N 06:13:00 13° NNE 06:14:55 10° NE visible
22 Jun 2.3 07:48:05 10° NW 07:51:48 62° NE 07:55:29 10° ESE visible
23 Jun 5.1 02:25:58 10° NW 02:27:58 14° NNW 02:29:58 10° N visible
23 Jun 5.1 05:45:28 10° N 05:47:15 13° NNE 05:49:02 10° NE visible
23 Jun 2.4 07:22:24 10° NW 07:26:05 57° NE 07:29:45 10° ESE visible
23 Jun 3.5 09:01:43 10° W 09:03:51 15° SW 09:05:59 10° SSW visible
24 Jun 5.0 02:00:06 10° WNW 02:02:13 14° NNW 02:04:20 10° NNE visible
24 Jun 5.1 05:19:51 10° N 05:21:30 12° NNE 05:23:08 10° NE visible
24 Jun 2.6 06:56:41 10° NW 07:00:21 52° NE 07:00:38 51° ENE visible
25 Jun 5.0 01:34:13 10° WNW 01:36:27 15° NNW 01:38:41 10° NNE visible
25 Jun 5.0 04:54:14 10° N 04:55:43 12° NNE 04:57:12 10° NE visible
25 Jun 3.5 06:30:59 10° NW 06:33:16 32° NNW 06:33:16 32° NNW visible
26 Jun 4.9 01:08:20 10° WNW 01:10:41 16° NNW 01:13:02 10° NNE visible
26 Jun 5.0 04:28:36 10° N 04:29:56 11° NNE 04:31:16 10° NE visible
26 Jun 4.0 06:05:17 10° NW 06:07:02 24° NNW 06:07:02 24° NNW visible
27 Jun 5.0 04:02:59 10° N 04:04:09 11° NNE 04:05:18 10° NE visible
27 Jun 4.1 05:39:33 10° NW 05:41:13 23° NNW 05:41:13 23° NNW visible
28 Jun 5.0 03:37:24 10° N 03:38:21 11° NNE 03:39:17 10° NNE visible
28 Jun 4.1 05:13:50 10° NW 05:15:37 24° NNW 05:15:37 24° NNW visible
29 Jun 5.0 03:11:50 10° N 03:12:33 10° NNE 03:13:14 10° NNE visible
29 Jun 4.0 04:48:06 10° NNW 04:50:10 26° N 04:50:10 26° N visible
30 Jun 5.0 02:46:27 10° N 02:46:44 10° NNE 02:47:00 10° NNE visible
30 Jun 3.8 04:22:22 10° NNW 04:24:49 29° N 04:24:49 29° N visible
